Location: Peach Mountain Observatory
(42.3967°N, 83.9367°W)
Time: 21:00:04
(UTC-05:00)

Transit 4A - Pass Details

Date: 23 January 2020
Orbit: 872 x 973 km, 66.8° (Epoch: 26 February)

Event Time Altitude Azimuth Distance (km) Brightness Sun altitude
Rises 05:54:25 0° 161° (SSE) 3,558 11.3 -22.6°
Reaches altitude 10° 05:57:53 10° 142° (SE) 2,600 10.8 -22.0°
Maximum altitude 06:01:31 17° 104° (ESE) 2,139 10.8 -21.3°
Drops below altitude 10° 06:05:07 10° 66° (ENE) 2,570 11.0 -20.7°
Sets 06:08:30 0° 47° (NE) 3,499 11.5 -20.1°
